www.pogodaiklimat.ru

Погода и климат >> Архив погоды >> Самоа >> Faleolo Int Airport


ПОГОДА в Faleolo Int Airport

  • Прогноз погоды в Faleolo Int Airport
  • Монитор погоды в Faleolo Int Airport
  • Климат города

АРХИВ ПОГОДЫ в Faleolo Int Airport

Время (UTC), дата Ветер
(напр.,м/с)
 
Видим.   Явления Облачность Т
(С)
Тd
(С)
f
(%)
Тe
(С)
Тes
(С)
Комфортность P
(гПа)
Po
(гПа)
Тmin
(С)
Tmax
(С)
R
(мм)
R24
(мм)
S
(см)
09 13.09 0 16 км н/о +25.4 +21.6 80 1013.3 1012.2
12 13.09 0 16 км н/о +25.0 +21.5 81 1012.6 1011.5 +31.4
15 13.09 0 16 км н/о +23.7 +22.1 91 1011.7 1010.6
18 13.09 0 16 км н/о +23.8 +20.9 84 1013.1 1012.0
21 13.09 0 16 км н/о +27.1 +21.8 73 1014.1 1013.0
00 14.09 0 16 км н/о +30.5 +21.5 59 1012.1 1011.0 +20.2
03 14.09 0 16 км н/о +27.8 +20.5 65 1010.8 1009.7
06 14.09 0 16 км н/о +26.1 +20.8 73 1011.5 1010.4
09 14.09 0 6000 м н/о +25.2 +21.7 81 1012.8 1011.7
12 14.09 0 16 км н/о +24.3 +22.2 88 1011.6 1010.5 +31.3
15 14.09 0 16 км н/о +23.4 +22.2 93 1010.4 1009.3
18 14.09 0 16 км н/о +24.8 +22.1 85 1011.7 1010.6
21 14.09 0 16 км н/о +29.0 +23.1 71 1012.4 1011.3
00 15.09 0 16 км н/о +30.5 +22.3 62 1010.7 1009.6 +23.5
03 15.09 0 16 км н/о +30.4 +21.1 58 1009.6 1008.5
06 15.09 0 16 км н/о +27.0 +21.9 74 1011.2 1010.1
09 15.09 0 16 км н/о +25.6 +21.2 77 1012.1 1011.0
12 15.09 0 16 км н/о +25.2 +21.0 78 1011.4 1010.3 +30.7
15 15.09 0 16 км н/о +23.9 +21.6 87 1010.1 1009.0 2
18 15.09 0 16 км н/о +25.5 +22.2 82 1010.7 1009.6
21 15.09 0 16 км н/о +28.9 +23.0 71 1012.4 1011.3 0.5
00 16.09 0 16 км н/о +29.6 +21.2 61 1010.4 1009.3 +22.9
03 16.09 0 16 км н/о +30.0 +20.4 56 1009.0 1007.9
06 16.09 0 16 км н/о +27.1 +20.6 68 1010.6 1009.5
09 16.09 0 16 км н/о +24.9 +21.0 79 1012.4 1011.3
12 16.09 0 16 км н/о +24.9 +19.9 74 1011.7 1010.6 +31.6
15 16.09 0 16 км н/о +24.5 +19.5 74 1010.9 1009.8
18 16.09 0 16 км н/о +25.5 +19.8 71 1012.2 1011.1
21 16.09 0 16 км н/о +30.1 +20.5 56 1012.5 1011.4
00 17.09 0 16 км н/о +31.8 +20.6 52 1010.8 1009.7 +23.6
03 17.09 0 16 км н/о +30.4 +21.4 59 1009.3 1008.2
06 17.09 0 16 км н/о +26.6 +20.6 70 1010.9 1009.8
09 17.09 0 16 км н/о +23.1 +19.6 81 1011.6 1010.5
12 17.09 0 16 км н/о +25.4 +20.1 72 1010.9 1009.8 +31.9
15 17.09 0 16 км н/о +21.5 +19.4 88 1009.9 1008.8
18 17.09 0 16 км н/о +22.1 +20.2 89 1011.1 1010.0
21 17.09 0 16 км н/о +31.4 +21.7 56 1011.7 1010.6
00 18.09 0 16 км н/о +30.9 +22.1 59 1009.7 1008.6 +22.9
03 18.09 0 16 км н/о +29.3 +22.4 66 1008.6 1007.5
06 18.09 0 16 км н/о +26.8 +21.0 71 1009.9 1008.8
09 18.09 0 16 км н/о +25.4 +21.2 78 1011.3 1010.2
12 18.09 0 16 км н/о +23.8 +21.5 87 1009.9 1008.8 +31.9
15 18.09 0 16 км н/о +24.8 +21.5 82 1008.6 1007.5
18 18.09 0 16 км н/о +23.7 +21.8 89 1010.1 1009.0
21 18.09 0 16 км н/о +29.7 +23.3 69 1010.7 1009.6
00 19.09 0 16 км н/о +30.8 +23.6 66 1008.8 1007.7 +21.2
03 19.09 0 16 км н/о +29.4 +22.8 68 1007.9 1006.8
06 19.09 0 16 км н/о +25.6 +23.2 87 1009.4 1008.3
09 19.09 0 16 км н/о +25.0 +23.2 90 1010.0 1008.9
12 19.09 0 16 км н/о +24.6 +23.0 91 1010.1 1009.0 +31.9
15 19.09 0 16 км н/о +23.5 +22.3 93 1008.8 1007.7
18 19.09 0 16 км н/о +23.2 +21.8 92 1011.1 1010.0 2
21 19.09 0 16 км н/о +24.4 +22.3 88 1011.0 1009.9
00 20.09 0 16 км н/о +28.8 +22.7 70 1007.5 1006.4 +23.1

 

Местоположение метеостанции Faleolo Int Airport (Самоа): широта -13.83 долгота -172.02 высота над уровнем моря 10 м.

В архиве по умолчанию представлена погода в Faleolo Int Airport за последнюю неделю. Архивные данные за месяц целиком и за предыдущие месяцы, начиная с января 2011 года, Вы можете получить, выбрав интересующий диапазон дат из раскрывающегося списка и нажав кнопку "Ввод!".


*Определитесь, кто Вы:
робот инопланетянин человек

Внимание! Время в таблицах - всемирное. Для получения местного времени необходимо прибавить поправку, которая в Faleolo Int Airport равна 13 ч.

Смотрите также архив погоды в соседних городах и на ближайших метеорологических станциях:

Погода в Faleolo Int Airport (Американское Самоа) (3 км)
Погода в Faleolo Int East (Самоа) (3 км)
Погода в Manono (Самоа) (10 км)
Погода в Maota Int Airport (Самоа) (28 км)
Погода в Apia (Американское Самоа) (35 км)
Погода в Togitogiga (Самоа) (35 км)
Погода в Le Mafa (Самоа) (48 км)
Погода в Lufi-Lufi (Самоа) (50 км)
Погода в Le Piu Tai (Самоа) (57 км)
Погода в Mount Talu (Самоа) (81 км)

Пояснения к столбцам:

Ветер - указаны скорость ветра в м/с - средняя за 10 мин, порывы в срок и между сроками (в фигурных скобках) и направление, откуда дует ветер: С - северный, СВ - северо-восточный, В - восточный, ЮВ - юго-восточный, Ю - южный, ЮЗ - юго-западный, З - западный, СЗ - северо-западный.
Видимость - горизонтальная дальность видимости в метрах или километрах. При видимости от 1 до 10 км при отсутствии осадков обычно наблюдается дымка, при ухудшении видимости до 1 км и менее - туман. В сухую погоду видимость может ухудшаться дымом, пылью или мглою.
Явления - указаны атмосферные явления, наблюдавшиеся в срок или в последний час перед сроком; фигурными скобками обозначены явления, наблюдавшиеся между сроками (за 1-3 часа до срока); квадратными скобками обозначены град или гололедные отложения с указанием их диаметра в мм.
Облачность - указаны через наклонную черту общая и нижняя облачность в баллах и высота нижней границы облаков в метрах; квадратными скобками обозначены формы облаков: Ci - перистые, Cs - перисто-слоистые, Cc - перисто-кучевые, Ac - высококучевые, As - высокослоистые, Sc - слоисто-кучевые, Ns - слоисто-дождевые, Cu - кучевые, Cb - кучево-дождевые. Подробнее классификацию облаков см. в Атласе облаков (PDF).
T - Температура воздуха - температура, измеренная на высоте 2 м над землей.
Td - Температура точки росы - температура, при понижении до которой содержащийся в воздухе водяной пар достигнет насыщения.
f - Относительная влажность воздуха - влажноcть воздуха, измеренная на высоте 2 м над землей.
Te - Эффективная температура - температура, которую ощущает одетый по сезону человек в тени. Характеристика душности погоды. При расчете учитывается влияние влажности воздуха и скорости ветра на теплоощущения человека.
Tes - Эффективная температура на солнце - температура, которую ощущает человек, с поправкой на солнечный нагрев. Характеристика знойности погоды. Зависит от высоты солнца над горизонтом, облачности и скорости ветра. Ночью, в пасмурную погоду, а также при ветре 12 м/с и более поправка равна нулю.
P - Атмосферное давление - приведенное к уровню моря атмосферное давление.
Po - Атмосферное давление - измеренное на уровне метеостанции атмосферное давление.
Tmin - Минимальная температура - минимум температуры воздуха на высоте 2 м над землей.
Tmax - Максимальная температура - максимум температуры воздуха на высоте 2 м над землей.
R - Количество осадков - Количество выпавших осадков за период времени, мм. При наведении курсора мыши на число - период времени, за который выпало указанное количество осадков.
R24 - Количество осадков - Количество выпавших осадков за 24 часа, мм.
S - Снежный покров - Высота снежного покрова, см. При наведении курсора мыши на число - состояние снежного покрова и степень покрытия местности в баллах.